Home > Weather > U.S.A. > Passaic > Past weeks

Flag for U.S.A. Weather past 2 weeks in Passaic, New Jersey, U.S.A.

47 °F

Light rain. Fog.

Feels Like: 45 °F
Forecast: 50 / 58 °F
Wind: 5 mph from Northeast

Location: Teterboro Airport

Current Time: Dec 1, 2015 at 11:06:18 PM

Latest Report: Dec 1, 2015 at 9:51 PM

Visibility: 4 mi

Pressure: 30.01 "Hg

Humidity: 90%

Dew point: 44 °F

Location of PassaicLocation

Historic Weather in Passaic — Graph


Passaic temperature yesterday

Maximum temperature yesterday: 45 °F (at 1:51 PM)
Minimum temperature yesterday: 32 °F (at 5:51 AM)
Average temperature yesterday: 40 °F

Past Weeks' High & Low Weather Summary

High65 °F (Nov 19, 3:51 PM)93% (Nov 27, 12:51 AM)30.82 "Hg (Nov 27, 12:51 AM)
Low26 °F (Nov 24, 3:51 AM)22% (Nov 20, 1:51 PM)29.85 "Hg (Nov 22, 4:51 AM)
Average47 °F61%30.30 "Hg
* Reported Nov 16 9:51 PM — Dec 1 9:51 PM, Passaic, Weather by CustomWeather, © 2015

Note: Actual official high and low records may vary slightly from our data, if they occured in-between our weather recording intervals... More about our weather records


Passaic weather history for previous 24 hours

Time TempWeatherWind HumidityBarometerVisibility
9:51 PM
Tue, Dec 1
47 °FLight rain. Fog.5 mph90%30.01 "Hg4 mi
8:54 PM48 °FLight rain. Fog.5 mph87%30.03 "Hg3 mi
6:51 PM48 °FLight rain. Fog.5 mph86%30.06 "Hg5 mi
5:51 PM48 °FLight rain. Low clouds.6 mph83%30.06 "Hg10 mi
4:51 PM48 °FLight rain. Overcast.6 mph83%30.06 "Hg5 mi
3:58 PM48 °FLight rain. Fog.3 mph87%30.10 "Hg5 mi
2:51 PM48 °FLight rain. Fog.6 mph86%30.12 "Hg3 mi
1:51 PM50 °FLight rain. Overcast.9 mph77%30.14 "Hg4 mi
12:51 PM51 °FMostly cloudy.8 mph71%30.16 "Hg8 mi
11:51 AM51 °FRain. Mostly cloudy.12 mph80%30.18 "Hg4 mi
11:02 AM50 °FLight rain. More clouds than sun.5 mph82%30.20 "Hg4 mi
10:51 AM50 °FLight rain. Overcast.5 mph80%30.21 "Hg4 mi
9:51 AM48 °FRain. Fog.6 mph83%30.21 "Hg6 mi
8:51 AM46 °FLight rain. Overcast.5 mph83%30.24 "Hg5 mi
7:58 AM45 °FLight rain. Overcast.6 mph81%30.22 "Hg5 mi
6:51 AM44 °FLight rain. Fog.6 mph85%30.24 "Hg2 mi
5:51 AM44 °FLight rain. Fog.5 mph85%30.25 "Hg4 mi
4:51 AM42 °FLight rain. Fog.No wind89%30.26 "Hg5 mi
3:51 AM41 °FLight rain. Fog.5 mph89%30.27 "Hg3 mi
2:51 AM42 °FLight rain. Fog.5 mph85%30.29 "Hg4 mi
1:51 AM43 °FLight rain. Mostly cloudy.3 mph79%30.29 "Hg7 mi
12:51 AM43 °FLight rain. Overcast.6 mph76%30.30 "Hg8 mi
11:51 PM
Mon, Nov 30
44 °FMostly cloudy.6 mph71%30.31 "Hg10 mi
Weather by CustomWeather, © 2015

See weather overviewHow to use our weather pages